Time,TemperatureF,DewpointF,PressureIn,WindDirection,WindDirectionDegrees,WindSpeedMPH,WindSpeedGustMPH,Humidity,HourlyPrecipIn,Conditions,Clouds,dailyrainin,SoftwareType,DateUTC
2013-10-06 00:00:00,72.3,71.0,29.95,SSE,153,0.0,1.0,96,0.00,,,0.00,weatherlink.com 1.10,2013-10-06 05:00:00,
2013-10-06 00:15:00,71.9,71.0,29.94,NE,49,0.0,1.0,96,0.00,,,0.00,weatherlink.com 1.10,2013-10-06 05:15:00,
2013-10-06 00:30:00,71.8,71.0,29.94,NE,51,0.0,1.0,96,0.00,,,0.00,weatherlink.com 1.10,2013-10-06 05:30:00,
2013-10-06 00:45:00,71.5,70.0,29.93,NE,51,0.0,0.0,96,0.00,,,0.00,weatherlink.com 1.10,2013-10-06 05:45:00,
2013-10-06 01:00:00,71.3,70.0,29.93,NE,51,0.0,0.0,96,0.00,,,0.00,weatherlink.com 1.10,2013-10-06 06:00:00,
2013-10-06 01:15:00,71.3,70.0,29.93,SE,124,0.0,0.0,96,0.00,,,0.00,weatherlink.com 1.10,2013-10-06 06:15:00,
2013-10-06 01:30:00,71.1,70.0,29.93,SE,124,0.0,0.0,96,0.00,,,0.00,weatherlink.com 1.10,2013-10-06 06:30:00,
2013-10-06 01:45:00,71.0,70.0,29.92,East,91,0.0,1.0,96,0.00,,,0.00,weatherlink.com 1.10,2013-10-06 06:45:00,
2013-10-06 02:00:00,71.3,70.0,29.92,ENE,75,0.0,0.0,97,0.00,,,0.00,weatherlink.com 1.10,2013-10-06 07:00:00,
2013-10-06 02:15:00,71.2,70.0,29.91,East,99,0.0,1.0,96,0.00,,,0.00,weatherlink.com 1.10,2013-10-06 07:15:00,
2013-10-06 02:30:00,71.2,70.0,29.91,East,93,1.0,3.0,97,0.00,,,0.00,weatherlink.com 1.10,2013-10-06 07:30:00,
2013-10-06 02:45:00,70.8,70.0,29.90,East,91,0.0,0.0,96,0.00,,,0.00,weatherlink.com 1.10,2013-10-06 07:45:00,
2013-10-06 03:00:00,70.7,70.0,29.90,ENE,67,0.0,2.0,97,0.00,,,0.00,weatherlink.com 1.10,2013-10-06 08:00:00,
2013-10-06 03:15:00,70.5,70.0,29.89,ESE,111,0.0,1.0,97,0.00,,,0.00,weatherlink.com 1.10,2013-10-06 08:15:00,
2013-10-06 03:30:00,70.3,69.0,29.89,NE,43,0.0,1.0,97,0.00,,,0.00,weatherlink.com 1.10,2013-10-06 08:30:00,
2013-10-06 03:45:00,70.4,70.0,29.89,East,93,0.0,1.0,97,0.00,,,0.00,weatherlink.com 1.10,2013-10-06 08:45:00,
2013-10-06 04:00:00,70.2,69.0,29.89,ENE,77,0.0,1.0,97,0.00,,,0.00,weatherlink.com 1.10,2013-10-06 09:00:00,
2013-10-06 04:15:00,70.2,69.0,29.89,ENE,65,0.0,2.0,97,0.00,,,0.00,weatherlink.com 1.10,2013-10-06 09:15:00,
2013-10-06 04:30:00,70.1,69.0,29.90,North,358,0.0,2.0,97,0.00,,,0.00,weatherlink.com 1.10,2013-10-06 09:30:00,
2013-10-06 04:45:00,70.0,69.0,29.90,ENE,76,0.0,1.0,97,0.00,,,0.00,weatherlink.com 1.10,2013-10-06 09:45:00,
2013-10-06 05:00:00,70.0,69.0,29.90,East,91,3.0,3.0,97,0.00,,,0.00,weatherlink.com 1.10,2013-10-06 10:00:00,
2013-10-06 05:15:00,69.9,69.0,29.90,NE,56,1.0,3.0,97,0.00,,,0.00,weatherlink.com 1.10,2013-10-06 10:15:00,
2013-10-06 05:30:00,69.9,69.0,29.90,East,87,0.0,3.0,97,0.00,,,0.00,weatherlink.com 1.10,2013-10-06 10:30:00,
2013-10-06 05:45:00,69.7,69.0,29.91,SE,124,0.0,2.0,97,0.00,,,0.00,weatherlink.com 1.10,2013-10-06 10:45:00,
2013-10-06 06:00:00,69.6,69.0,29.91,ENE,74,0.0,4.0,97,0.00,,,0.00,weatherlink.com 1.10,2013-10-06 11:00:00,
2013-10-06 06:15:00,69.5,69.0,29.91,East,84,0.0,3.0,97,0.00,,,0.00,weatherlink.com 1.10,2013-10-06 11:15:00,
2013-10-06 06:30:00,69.4,69.0,29.91,East,79,1.0,3.0,97,0.00,,,0.00,weatherlink.com 1.10,2013-10-06 11:30:00,
2013-10-06 06:45:00,69.4,69.0,29.91,East,101,0.0,3.0,97,0.00,,,0.00,weatherlink.com 1.10,2013-10-06 11:45:00,
2013-10-06 07:00:00,69.4,69.0,29.91,ESE,103,0.0,3.0,97,0.00,,,0.00,weatherlink.com 1.10,2013-10-06 12:00:00,
2013-10-06 07:15:00,69.5,69.0,29.90,ENE,75,4.0,5.0,97,0.00,,,0.00,weatherlink.com 1.10,2013-10-06 12:15:00,
2013-10-06 07:30:00,69.9,69.0,29.90,SSE,158,0.0,4.0,97,0.00,,,0.00,weatherlink.com 1.10,2013-10-06 12:30:00,
2013-10-06 07:45:00,71.0,70.0,29.90,SE,136,1.0,6.0,96,0.00,,,0.00,weatherlink.com 1.10,2013-10-06 12:45:00,
2013-10-06 08:00:00,71.7,70.0,29.90,ESE,117,3.0,5.0,95,0.00,,,0.00,weatherlink.com 1.10,2013-10-06 13:00:00,
2013-10-06 08:15:00,72.0,71.0,29.90,ESE,122,3.0,7.0,96,0.00,,,0.00,weatherlink.com 1.10,2013-10-06 13:15:00,
2013-10-06 08:30:00,72.7,72.0,29.90,East,84,3.0,10.0,96,0.00,,,0.00,weatherlink.com 1.10,2013-10-06 13:30:00,
2013-10-06 08:46:00,74.0,72.0,29.90,SSE,149,2.0,6.0,94,0.00,,,0.00,weatherlink.com 1.10,2013-10-06 13:46:00,
2013-10-06 09:01:00,75.1,73.0,29.90,WSW,238,2.0,7.0,93,0.00,,,0.00,weatherlink.com 1.10,2013-10-06 14:01:00,
2013-10-06 09:16:00,76.4,74.0,29.90,SE,134,1.0,10.0,91,0.00,,,0.00,weatherlink.com 1.10,2013-10-06 14:16:00,
2013-10-06 09:31:00,76.8,74.0,29.90,ESE,111,2.0,11.0,90,0.00,,,0.00,weatherlink.com 1.10,2013-10-06 14:31:00,
2013-10-06 09:46:00,77.2,74.0,29.90,WSW,245,0.0,7.0,90,0.00,,,0.00,weatherlink.com 1.10,2013-10-06 14:46:00,
2013-10-06 10:01:00,77.3,74.0,29.90,SE,143,0.0,6.0,89,0.00,,,0.00,weatherlink.com 1.10,2013-10-06 15:01:00,
2013-10-06 10:16:00,77.4,74.0,29.91,East,91,2.0,10.0,88,0.00,,,0.00,weatherlink.com 1.10,2013-10-06 15:16:00,
2013-10-06 10:31:00,78.0,74.0,29.91,SSE,165,1.0,6.0,87,0.00,,,0.00,weatherlink.com 1.10,2013-10-06 15:31:00,
2013-10-06 10:46:00,78.3,74.0,29.90,ESE,121,3.0,7.0,85,0.00,,,0.00,weatherlink.com 1.10,2013-10-06 15:46:00,
2013-10-06 11:01:00,78.3,74.0,29.90,NE,46,3.0,8.0,85,0.00,,,0.00,weatherlink.com 1.10,2013-10-06 16:01:00,
2013-10-06 11:16:00,78.6,74.0,29.90,SE,139,2.0,9.0,85,0.00,,,0.00,weatherlink.com 1.10,2013-10-06 16:16:00,
2013-10-06 11:31:00,78.7,74.0,29.89,SSE,153,1.0,8.0,84,0.00,,,0.00,weatherlink.com 1.10,2013-10-06 16:31:00,
2013-10-06 11:46:00,78.5,73.0,29.89,ENE,67,3.0,11.0,84,0.00,,,0.00,weatherlink.com 1.10,2013-10-06 16:46:00,
2013-10-06 12:01:00,78.6,74.0,29.88,West,263,1.0,10.0,85,0.00,,,0.00,weatherlink.com 1.10,2013-10-06 17:01:00,
2013-10-06 12:16:00,78.3,74.0,29.87,ESE,113,7.0,8.0,85,0.00,,,0.00,weatherlink.com 1.10,2013-10-06 17:16:00,
2013-10-06 12:31:00,78.2,74.0,29.87,South,170,1.0,9.0,86,0.00,,,0.00,weatherlink.com 1.10,2013-10-06 17:31:00,
2013-10-06 12:46:00,78.0,74.0,29.87,WSW,255,4.0,8.0,86,0.00,,,0.00,weatherlink.com 1.10,2013-10-06 17:46:00,
2013-10-06 13:01:00,76.9,74.0,29.87,ENE,65,0.0,7.0,89,0.00,,,0.00,weatherlink.com 1.10,2013-10-06 18:01:00,
2013-10-06 13:16:00,75.9,73.0,29.86,SSE,152,1.0,7.0,91,0.00,,,0.00,weatherlink.com 1.10,2013-10-06 18:16:00,
2013-10-06 13:31:00,74.7,72.0,29.86,SE,142,4.0,7.0,92,0.00,,,0.00,weatherlink.com 1.10,2013-10-06 18:31:00,
2013-10-06 13:46:00,74.8,73.0,29.85,ESE,113,1.0,3.0,93,0.00,,,0.00,weatherlink.com 1.10,2013-10-06 18:46:00,
2013-10-06 14:01:00,75.2,73.0,29.84,East,98,2.0,4.0,92,0.00,,,0.00,weatherlink.com 1.10,2013-10-06 19:01:00,
2013-10-06 14:16:00,74.9,73.0,29.84,SSE,152,0.0,6.0,92,0.00,,,0.00,weatherlink.com 1.10,2013-10-06 19:16:00,
2013-10-06 14:31:00,74.9,73.0,29.84,South,177,0.0,2.0,93,0.00,,,0.00,weatherlink.com 1.10,2013-10-06 19:31:00,
2013-10-06 14:46:00,74.1,72.0,29.83,SE,128,0.0,2.0,94,0.02,,,0.02,weatherlink.com 1.10,2013-10-06 19:46:00,
2013-10-06 15:01:00,73.8,72.0,29.83,SSW,208,0.0,1.0,95,0.03,,,0.03,weatherlink.com 1.10,2013-10-06 20:01:00,
2013-10-06 15:16:00,73.5,72.0,29.83,SSE,163,0.0,3.0,95,0.06,,,0.06,weatherlink.com 1.10,2013-10-06 20:16:00,
2013-10-06 15:31:00,73.1,72.0,29.83,West,267,0.0,4.0,95,0.10,,,0.10,weatherlink.com 1.10,2013-10-06 20:31:00,
2013-10-06 15:46:00,72.9,72.0,29.83,WSW,242,2.0,5.0,96,0.14,,,0.16,weatherlink.com 1.10,2013-10-06 20:46:00,
2013-10-06 16:01:00,72.3,71.0,29.83,South,180,4.0,4.0,96,0.19,,,0.22,weatherlink.com 1.10,2013-10-06 21:01:00,
2013-10-06 16:16:00,71.8,71.0,29.83,SSW,211,3.0,3.0,96,0.22,,,0.28,weatherlink.com 1.10,2013-10-06 21:16:00,
2013-10-06 16:31:00,71.6,70.0,29.84,SSE,159,1.0,3.0,96,0.20,,,0.31,weatherlink.com 1.10,2013-10-06 21:31:00,
2013-10-06 16:46:00,71.5,70.0,29.84,SW,215,0.0,3.0,96,0.15,,,0.31,weatherlink.com 1.10,2013-10-06 21:46:00,
2013-10-06 17:01:00,71.5,70.0,29.83,SE,127,0.0,3.0,96,0.10,,,0.32,weatherlink.com 1.10,2013-10-06 22:01:00,
2013-10-06 17:16:00,71.4,70.0,29.83,SE,145,0.0,3.0,96,0.06,,,0.34,weatherlink.com 1.10,2013-10-06 22:16:00,
2013-10-06 17:31:00,71.5,70.0,29.82,SSE,150,0.0,1.0,96,0.04,,,0.35,weatherlink.com 1.10,2013-10-06 22:31:00,
2013-10-06 17:46:00,71.4,70.0,29.82,SE,125,1.0,4.0,96,0.06,,,0.37,weatherlink.com 1.10,2013-10-06 22:46:00,
2013-10-06 18:01:00,71.4,71.0,29.81,South,187,0.0,5.0,97,0.07,,,0.39,weatherlink.com 1.10,2013-10-06 23:01:00,
2013-10-06 18:16:00,71.1,70.0,29.81,East,97,0.0,4.0,96,0.07,,,0.41,weatherlink.com 1.10,2013-10-06 23:16:00,
2013-10-06 18:31:00,71.0,70.0,29.80,ENE,65,1.0,3.0,97,0.07,,,0.42,weatherlink.com 1.10,2013-10-06 23:31:00,
2013-10-06 18:46:00,71.0,70.0,29.80,East,98,0.0,3.0,97,0.07,,,0.44,weatherlink.com 1.10,2013-10-06 23:46:00,
2013-10-06 19:01:00,71.2,70.0,29.81,SE,128,1.0,1.0,97,0.06,,,0.45,weatherlink.com 1.10,2013-10-07 00:01:00,
2013-10-06 19:16:00,71.2,70.0,29.81,East,82,0.0,2.0,97,0.05,,,0.46,weatherlink.com 1.10,2013-10-07 00:16:00,
2013-10-06 19:31:00,71.1,70.0,29.81,West,277,0.0,0.0,97,0.05,,,0.47,weatherlink.com 1.10,2013-10-07 00:31:00,
2013-10-06 19:47:00,70.9,70.0,29.80,ENE,68,0.0,0.0,97,0.04,,,0.48,weatherlink.com 1.10,2013-10-07 00:47:00,
2013-10-06 20:02:00,70.9,70.0,29.80,NE,52,0.0,3.0,97,0.03,,,0.48,weatherlink.com 1.10,2013-10-07 01:02:00,
2013-10-06 20:17:00,71.0,70.0,29.81,ESE,114,0.0,2.0,97,0.02,,,0.48,weatherlink.com 1.10,2013-10-07 01:17:00,
2013-10-06 20:32:00,70.9,70.0,29.81,SE,138,0.0,1.0,97,0.01,,,0.48,weatherlink.com 1.10,2013-10-07 01:32:00,
2013-10-06 20:47:00,71.0,70.0,29.82,East,85,0.0,1.0,97,0.00,,,0.48,weatherlink.com 1.10,2013-10-07 01:47:00,
2013-10-06 21:02:00,70.8,70.0,29.83,NNE,30,0.0,1.0,97,0.00,,,0.48,weatherlink.com 1.10,2013-10-07 02:02:00,
2013-10-06 21:17:00,71.0,70.0,29.82,ESE,108,0.0,1.0,97,0.00,,,0.48,weatherlink.com 1.10,2013-10-07 02:17:00,
2013-10-06 21:32:00,70.8,70.0,29.82,East,87,0.0,1.0,97,0.00,,,0.48,weatherlink.com 1.10,2013-10-07 02:32:00,
2013-10-06 21:47:00,71.0,70.0,29.82,East,80,0.0,2.0,97,0.00,,,0.48,weatherlink.com 1.10,2013-10-07 02:47:00,
2013-10-06 22:02:00,70.9,70.0,29.82,ENE,76,0.0,2.0,97,0.00,,,0.48,weatherlink.com 1.10,2013-10-07 03:02:00,
2013-10-06 22:17:00,70.8,70.0,29.82,ENE,64,0.0,0.0,97,0.00,,,0.48,weatherlink.com 1.10,2013-10-07 03:17:00,
2013-10-06 22:32:00,70.7,70.0,29.82,ENE,63,0.0,0.0,97,0.00,,,0.48,weatherlink.com 1.10,2013-10-07 03:32:00,
2013-10-06 22:47:00,70.5,70.0,29.82,ENE,64,0.0,0.0,97,0.00,,,0.48,weatherlink.com 1.10,2013-10-07 03:47:00,
2013-10-06 23:02:00,70.4,70.0,29.82,ENE,64,0.0,0.0,97,0.00,,,0.48,weatherlink.com 1.10,2013-10-07 04:02:00,
2013-10-06 23:17:00,70.4,70.0,29.82,ENE,63,0.0,0.0,97,0.00,,,0.48,weatherlink.com 1.10,2013-10-07 04:17:00,
2013-10-06 23:32:00,70.4,70.0,29.82,ENE,62,0.0,0.0,98,0.00,,,0.48,weatherlink.com 1.10,2013-10-07 04:32:00,
2013-10-06 23:49:00,70.5,70.0,29.82,ENE,62,0.0,0.0,98,0.00,,,0.48,weatherlink.com 1.10,2013-10-07 04:49:00,